Find Kuiper-00260

NORAD ID: 67787 Int'l Des: 2026-030 Owner: KUIP Country: US Constellation: amazon-leo operational
LEOCIRCULAR

現在のビュー

3D地球を読み込み中...

Kuiper-00260について

説明を読み込み中...

次回通過

Passes for default location (London). Set your location on the main map for personalized predictions.

高度履歴

Loading altitude history...

軌道要素

1 67787U 26030Z 26146.21692049 .00001771 00000-0 28310-3 0 9991
2 67787 51.9001 212.4134 0002117 132.4295 227.6845 14.76393721 16810
Epoch: May 26, 2026 • Age: 11 hours

現在のステータス

高度 655.6 km
速度 7.53 km/s
衛星直下点 -43.49°S, 46.67°W
打ち上げ日 Feb 12, 2026
運用期間 0.2 years
タイプ internet

技術仕様

分類 Payload
質量 490.00 kg
乾燥質量 490.00 kg
総質量 490.00 kg
長さ 1.80 m
直径 0.70 m
スパン 5.00 m
形状 Box + 2 pan
製造者 KUIP
バスタイプ Kuiper
フェーズステータス In Orbit
所有者/国 KUIP/US

Most Searched